Regional Weather Roundup
Issued by NWS

Home | Current Version | Previous Version | Text Only | Print | Product List | Glossary On
Versions: 1 2 3 4 5 6 7 8 9 10 11 12 13 14 15 16 17 18 19 20 21 22 23 24 25 26 27 28 29 30 31 32 33 34 35 36 37 38 39 40 41 42 43 44 45 46 47 48 49 50
000
ASUS43 KMKX 220021
RWRWI

WISCONSIN REGIONAL WEATHER ROUNDUP
NATIONAL WEATHER SERVICE MILWAUKEE/SULLIVAN WI
600 PM CST FRI NOV 21 2014

NOTE: "FAIR" INDICATES FEW OR NO CLOUDS BELOW 12,000 FEET WITH NO
SIGNIFICANT WEATHER AND/OR OBSTRUCTIONS TO VISIBILITY.

WIZ001-002-006>008-014>016-023>028-220100-
NORTHWEST WISCONSIN

CITY           SKY/WX    TMP DP  RH WIND       PRES   REMARKS
SUPERIOR ARPT  CLOUDY    28  18  65 SW21G26   29.89F WCI  15
6HR MIN TEMP:  26; 6HR MAX TEMP:  32;

ASHLAND        MOCLDY    26  12  55 SW16      29.91F WCI  14
6HR MIN TEMP:  21; 6HR MAX TEMP:  28;

HAYWARD        MOCLDY    24  12  60 S20G30    29.95F WCI  10
SIREN          PTCLDY    27  17  65 S12       29.95F WCI  17
6HR MIN TEMP:  24; 6HR MAX TEMP:  28;

CUMBERLAND     PTCLDY    23  12  63 S12       29.97F WCI  12
RICE LAKE      PTCLDY    22  11  62 SE10      30.01F WCI  12
6HR MIN TEMP:  19; 6HR MAX TEMP:  24;

CHETEK         PTCLDY    22  10  61 SE6       30.02F WCI  14
6HR MIN TEMP:  19; 6HR MAX TEMP:  24;

LADYSMITH      FAIR      23   8  52 S9        30.02F WCI  13
6HR MIN TEMP:  19; 6HR MAX TEMP:  26;

EAU CLAIRE     MOCLDY    25  11  55 S12       30.04F WCI  14
6HR MIN TEMP:  20; 6HR MAX TEMP:  26;

MENOMONIE      PTCLDY    27  14  59 S9        30.03F WCI  17
6HR MIN TEMP:  22; 6HR MAX TEMP:  28;

NEW RICHMOND   PTCLDY    26  17  69 S15       29.98F WCI  14
6HR MIN TEMP:  21; 6HR MAX TEMP:  28;

OSCEOLA        PTCLDY    27  19  71 S14       29.99F WCI  16
6HR MIN TEMP:  22; 6HR MAX TEMP:  28;

$$

WIZ003>005-009-010-017-018-220100-
NORTH CENTRAL WISCONSIN

CITY           SKY/WX    TMP DP  RH WIND       PRES   REMARKS
MANITOWISH WTR MOCLDY    22   6  50 S14       29.95F WCI   9
6HR MIN TEMP:  17; 6HR MAX TEMP:  24;

ARBOR VITAE    MOCLDY    22   8  53 S18       29.98F WCI   8
6HR MIN TEMP:  19; 6HR MAX TEMP:  24;

WOODRUFF       MOCLDY    22   8  53 S18       29.98F WCI   8
6HR MIN TEMP:  19; 6HR MAX TEMP:  24;

RHINELANDER    PTCLDY    21   4  47 S15G22    30.01F WCI   8
6HR MIN TEMP:  16; 6HR MAX TEMP:  22;

EAGLE RIVER    PTCLDY    20   4  49 S6        29.99F WCI  13
6HR MIN TEMP:  17; 6HR MAX TEMP:  23;

LAND O LAKES   PTCLDY    21   6  52 S12G17    29.97F WCI   9
6HR MIN TEMP:  21; 6HR MAX TEMP:  25;

PHILLIPS       PTCLDY    21   6  51 S14G21    29.99F WCI   8
6HR MIN TEMP:  17; 6HR MAX TEMP:  24;

TOMAHAWK       PTCLDY    21   8  56 S5        30.03F WCI  15
6HR MIN TEMP:  17; 6HR MAX TEMP:  22;

MEDFORD        PTCLDY    21   8  58 S13       30.04F WCI   8
6HR MIN TEMP:  17; 6HR MAX TEMP:  23;

MERRILL        PTCLDY    24   6  48 S9        30.06F WCI  14
6HR MIN TEMP:  19; 6HR MAX TEMP:  26;

$$

WIZ029-030-035-036-043>047-220100-
CENTRAL WISCONSIN

CITY           SKY/WX    TMP DP  RH WIND       PRES   REMARKS
WAUSAU         CLEAR     25   6  44 S12       30.07F WCI  14
6HR MIN TEMP:  18; 6HR MAX TEMP:  26;

MOSINEE        CLEAR     23   9  54 S12       30.10F WCI  12
MARSHFIELD     CLEAR     24   8  50 S13       30.08F WCI  12
6HR MIN TEMP:  21; 6HR MAX TEMP:  26;

STEVENS POINT  CLEAR     23   7  48 S9        30.12F WCI  13
6HR MIN TEMP:  20; 6HR MAX TEMP:  25;

WAUPACA        PTCLDY    28  10  45 S10       30.16F WCI  19
6HR MIN TEMP:  26; 6HR MAX TEMP:  31;

WAUTOMA        FAIR      27   8  44 S10       30.17F WCI  17
6HR MIN TEMP:  26; 6HR MAX TEMP:  31;

WISC RAPIDS    CLEAR     26   5  40 S12       30.14F WCI  16
6HR MIN TEMP:  22; 6HR MAX TEMP:  28;

CAMP DOUGLAS   CLOUDY    27   9  46 S10G18    30.14F WCI  18
6HR MIN TEMP:  25; 6HR MAX TEMP:  30;

$$

WIZ011>013-019>022-031-037>040-048>050-220100-
NORTHEAST WISCONSIN

CITY           SKY/WX    TMP DP  RH WIND       PRES   REMARKS
ANTIGO         CLOUDY    21   8  56 S12       30.07F WCI   9
6HR MIN TEMP:  15; 6HR MAX TEMP:  22;

SHAWANO        PTCLDY    29  10  45 S5        30.15F WCI  24
6HR MIN TEMP:  22; 6HR MAX TEMP:  29;

OCONTO         MOCLDY    28   7  42 S8G16     30.16F WCI  19
6HR MIN TEMP:  22; 6HR MAX TEMP:  28;

STURGEON BAY   MOCLDY    28   9  43 S15G21    30.15F WCI  17
6HR MIN TEMP:  21; 6HR MAX TEMP:  28;

GREEN BAY      MOCLDY    29  11  47 S15       30.17F WCI  18
6HR MIN TEMP:  22; 6HR MAX TEMP:  29;

MANITOWOC      MOCLDY    30   9  41 S14       30.21F WCI  19
6HR MIN TEMP:  29; 6HR MAX TEMP:  31;

APPLETON       MOCLDY    27   9  46 SW13      30.18F WCI  16
CLINTONVILLE   MOCLDY    28  12  50 S12       30.15F WCI  18
OSHKOSH        PTCLDY    26  10  50 S13       30.19F WCI  15
6HR MIN TEMP:  24; 6HR MAX TEMP:  29;

$$

WIZ032>034-041-042-053>061-220100-
SOUTHWEST WISCONSIN

CITY           SKY/WX    TMP DP  RH WIND       PRES   REMARKS
LA CROSSE      CLOUDY    30  14  51 S13       30.13F WCI  20
6HR MIN TEMP:  25; 6HR MAX TEMP:  31;

SPARTA         MOCLDY    28  10  46 S8        30.13F WCI  20
6HR MIN TEMP:  25; 6HR MAX TEMP:  32;

VIROQUA        CLOUDY    27  12  54 S12G20    30.12F WCI  16
6HR MIN TEMP:  25; 6HR MAX TEMP:  29;

BOSCOBEL       MOCLDY    31  11  43 VRB5      30.18F WCI  26
6HR MIN TEMP:  27; 6HR MAX TEMP:  32;

PRAIRIE DU CHI CLOUDY    31  10  41 SE5       30.17F WCI  26
6HR MIN TEMP:  26; 6HR MAX TEMP:  31;

PLATTEVILLE    PTCLDY    28  11  49 CALM      30.19F
6HR MIN TEMP:  26; 6HR MAX TEMP:  31;

$$

WIZ056-057-062-063-064-067-068-220100-
SOUTH CENTRAL WISCONSIN

CITY           SKY/WX    TMP DP  RH WIND       PRES   REMARKS
REEDSBURG      CLEAR     27   9  45 S8G16     30.16F WCI  19
6HR MIN TEMP:  25; 6HR MAX TEMP:  31;

BARABOO/DELLS  CLEAR     27   8  46 S10       30.16F WCI  17
6HR MIN TEMP:  24; 6HR MAX TEMP:  30;

LONE ROCK      PTCLDY    32  10  40 SE6       30.20F WCI  26
6HR MIN TEMP:  30; 6HR MAX TEMP:  34;

MINERAL POINT  PTCLDY    30  10  43 S12       30.17F WCI  21
MADISON        MOCLDY    28   8  43 S10       30.21F WCI  19
6HR MIN TEMP:  25; 6HR MAX TEMP:  30;

MIDDLETON      CLEAR     30   6  36 S10       30.20F WCI  21
6HR MIN TEMP:  28; 6HR MAX TEMP:  32;

WATERTOWN      CLEAR     26   8  46 S7        30.22F WCI  18
6HR MIN TEMP:  26; 6HR MAX TEMP:  31;

MONROE         CLEAR     28  10  47 S12       30.20F WCI  18
JANESVILLE     CLEAR     28   5  37 S9        30.24F WCI  20
$$

WIZ051-052-058>065-066-070>072-220100-
SOUTHEAST WISCONSIN

CITY           SKY/WX    TMP DP  RH WIND       PRES   REMARKS
MILWAUKEE      PTCLDY    28   3  34 S7        30.26F WCI  21
6HR MIN TEMP:  27; 6HR MAX TEMP:  32;

WAUKESHA       CLEAR     25   3  39 S5        30.25F WCI  19
MILWAUKEE/TIMM CLEAR     28   1  31 S8        30.26F WCI  20
RACINE         CLEAR     28   3  34 S7        30.29F WCI  21
6HR MIN TEMP:  27; 6HR MAX TEMP:  32;

BURLINGTON     CLEAR     24   4  42 S7        30.26F WCI  16
6HR MIN TEMP:  23; 6HR MAX TEMP:  31;

KENOSHA        CLEAR     25   4  40 S7        30.27F WCI  17
6HR MIN TEMP:  25; 6HR MAX TEMP:  33;

FOND DU LAC    PTCLDY    27   9  46 S14       30.20F WCI  16
6HR MIN TEMP:  24; 6HR MAX TEMP:  30;

SHEBOYGAN      MOCLDY    29   8  41 S14       30.22F WCI  18
6HR MIN TEMP:  26; 6HR MAX TEMP:  32;

WEST BEND      FAIR      27   3  36 S8        30.22F WCI  18
JUNEAU         CLEAR     25   9  50 S12       30.22F WCI  14
6HR MIN TEMP:  25; 6HR MAX TEMP:  29;

$$

LSZ147-162-220100-
LAKE SUPERIOR

STATION/POSITION TIME  TEMP    WIND        PRES    WAVE
                       AIR SEA DIR/SP/G            HT/PER
                 (UTC) (F)     (DEG/KT/KT) (MB)    (FT/S)
DEVILS ISLAND    0000   33     220/ 19/ 25 1012.1F
PORT WING        2300   28     200/ 11/ 26 1012.9F
SAXON HARBOR     2300   30     190/ 12/ 22 1012.5F
$$

LMZ867-665-643>646-220100-
LAKE MICHIGAN

STATION/POSITION TIME  TEMP    WIND        PRES    WAVE
                       AIR SEA DIR/SP/G            HT/PER



USA.gov is the U.S. government's official web portal to all federal, state and local government web resources and services.